Weather in Chernigovskoye

Russia / Krasnodar Krai     44°15′04″N   39°45′56″E
temp.,
°C
wind,
m/s
gust,
m/s
humid.,
%
clouds,
%
prec.,
mm/h
press.,
hPa
HPBL,
m
24 september, fri
fri2400:00+9nnw12100100 0.6 1013114
03:00+9n12100100 0.9 1013162
06:00+9nnw1298100 0.3 1013203
09:00+10nnw229386 0.4 1014402
12:00+13wnw246429 0.1 10141109
15:00+15w57455 0.1 10131664
18:00+10wsw357393 0.0 1015142
21:00+7s358564 0.0 1015102
25 september, sat
sat2500:00+10s31076100 0.0 1013733
03:00+10ssw31094100 3.0 1012770
06:00+10ssw41294100 8.8 1011939
09:00+9sse2697100 27.9 1011420
12:00+11s248980 18.0 1014497
15:00+11sw3793100 20.4 1015546
18:00+9sw2496100 2.9 1018157
21:00+7ssw349560 4.1 102060
26 september, sun
sun2600:00+8ssw239481 0.0 102171
03:00+8ssw349332 0.0 102291
06:00+7ssw34955 0.0 102377
09:00+13sw387355 0.0 1021723
12:00+15ssw486298 0.0 1020830
15:00+16sw5105868 0.0 1020936
18:00+13ssw497282 0.0 1020386
21:00+12ssw477282 0.0 1019209
27 september, mon
mon2700:00+11ssw477878 0.0 1019192
03:00+12ssw4877100 0.0 1018351
06:00+12sw3584100 0.1 1018195
09:00+13wsw2383100 0.2 1018248
12:00+17w246936 0.3 1017981
15:00+16nw346946 1.0 1017883
18:00+12ene1288100 0.3 101866
21:00+11e118457 0.3 101913
28 september, tue
tue2800:00+8sse01940 0.0 101910
03:00+6sse11955 0.0 101911
06:00+6se119617 0.0 102011
09:00+11nne22776 0.0 1019422
12:00+16n325718 0.0 10181224
15:00+16nne345679 0.0 1018970
18:00+12ne237512 0.0 1020117
21:00+9sse22885 0.0 102123